www.pogodaiklimat.ru

Погода и климат >> Архив погоды >> Россия >> Красноярский край >> Бахта


ПОГОДА в Бахте

  • Прогноз погоды в Бахте
  • Монитор погоды в Бахте
  • Климат города

АРХИВ ПОГОДЫ в Бахте

Время (UTC), дата Ветер
(напр.,м/с)
 
Видим.   Явления Облачность Т
(С)
Тd
(С)
f
(%)
Тe
(С)
Тes
(С)
Комфортность P
(гПа)
Po
(гПа)
Тmin
(С)
Tmax
(С)
R
(мм)
R24
(мм)
S
(см)
12 11.12 Ю 2 н/о слабый снег 10/0 2000 м
[As op]
-13.4 -16.1 80 -18 -18 1027.3 1020.6 -13.4 0.6
15 11.12 Ю 2 н/о слабый снег 10/0 2000 м
[As op]
-13.5 -16.2 80 -18 -18 1027.3 1020.6
18 11.12 Ю 2 н/о слабый снег 10/0 2000 м
[As op]
-15.1 -17.8 80 -20 -20 1026.8 1020.1
21 11.12 штиль 0 н/о {снег} 10/0 2000 м
[As trans]
-15.5 -18.2 80 -16 -16 1026.8 1020.1
00 12.12 штиль 0 н/о {снег} 10/0 2000 м
[As trans]
-17.0 -20.4 75 -17 -17 1026.5 1019.8 -17.0 0.3 52
03 12.12 штиль 0 50 км 8/8 600 м
[Sc]
-19.9 -22.5 80 -20 -20 1026.5 1019.7 -19.9
06 12.12 штиль 0 10 км слабый снег 10/0 2000 м
[As trans]
-19.6 -22.9 75 -20 -20 1026.6 1019.8
09 12.12 штиль 0 50 км слабый снег 10/0 2000 м
[As trans]
-20.8 -24.1 75 -21 -21 1026.7 1019.9
12 12.12 штиль 0 н/о слабый снег 10/0 2000 м
[As op]
-20.8 -23.3 80 -21 -21 1026.7 1019.9 -17.0 0.5
15 12.12 штиль 0 н/о слабый снег 10/0 2000 м
[As op]
-20.3 -22.9 80 -20 -20 1026.8 1020.0
18 12.12 штиль 0 н/о слабый снег 10/0 2000 м
[As op]
-19.8 -22.4 80 -20 -20 1027.4 1020.6
21 12.12 штиль 0 н/о слабый снег 10/0 2000 м
[As op]
-19.5 -22.1 80 -20 -20 1027.9 1021.1
00 13.12 штиль 0 н/о слабый снег 10/0 2000 м
[As trans]
-18.4 -21.0 80 -18 -18 1028.6 1021.8 -20.8 1 53
03 13.12 штиль 0 50 км {снег} 3/0 2000 м
[Ac trans]
-19.8 -22.4 80 -20 -20 1029.6 1022.8
06 13.12 штиль 0 50 км {снег} 10/0
[Cs]
-20.4 -23.6 75 -20 -20 1030.5 1023.7
09 13.12 СЗ 2 20 км слабый снег 10/0
[Cs]
-20.7 -24.0 75 -27 -27 1032.6 1025.7
12 13.12 штиль 0 н/о {снег} 3/0
[Ci sp]
-22.4 -25.6 75 -22 -22 1034.5 1027.6 -18.4 0.2
15 13.12 штиль 0 н/о 10/0 2000 м
[As trans]
-24.7 -27.9 75 -25 -25 1036.3 1029.3
18 13.12 штиль 0 н/о 10/0 2000 м
[As trans]
-24.8 -28.0 75 -25 -25 1036.7 1029.7
21 13.12 штиль 0 н/о слабый снег 10/0 2000 м
[As op]
-22.8 -26.1 74 -23 -23 1037.2 1030.2
00 14.12 штиль 0 н/о слабый снег 10/0 2000 м
[As op]
-21.3 -24.6 75 -21 -21 1036.5 1029.6 -24.8 0.3 54
03 14.12 Ю 2 10 км слабый снег 10/0 2000 м
[As op]
-19.7 -23.0 75 -25 -25 1036.2 1029.3
06 14.12 штиль 0 50 км {снег} 10/0
[As trans]
-18.8 -22.1 75 -19 -19 1036.5 1029.6
09 14.12 Ю 2 50 км {дождь} 9/0 2000 м
[Ac As]
-19.7 -23.0 75 -25 -25 1036.5 1029.2
12 14.12 Ю 2 н/о слабый снег 10/0 2000 м
[As trans]
-17.8 -20.4 80 -23 -23 1036.1 1029.2 -17.8 0.7
15 14.12 Ю 2 н/о слабый снег 10/0 2000 м
[As trans]
-15.2 -17.9 80 -20 -20 1035.0 1028.3
18 14.12 Ю 2 н/о {снег} 10/0
[As trans]
-16.5 -19.1 80 -22 -22 1033.5 1026.8
21 14.12 Ю 2 н/о слабый снег 10/0 2000 м
[As trans]
-17.7 -20.3 80 -23 -23 1032.0 1025.1
00 15.12 Ю 2 н/о слабый снег 10/0 2000 м
[As op]
-15.4 -18.1 80 -20 -20 1030.6 1023.9 -17.8 0.5 54
03 15.12 Ю 2 10 км слабый снег 10/0 2000 м
[As op]
-14.5 -17.2 80 -19 -19 1030.7 1020.7
06 15.12 штиль 0 20 км слабый снег 10/0 2000 м
[As trans]
-14.1 -16.8 80 -14 -14 1031.1 1024.4
09 15.12 штиль 0 50 км {снег} 9/0 2000 м
[Ac As]
-15.0 -17.7 80 -15 -15 1032.1 1025.4
12 15.12 штиль 0 н/о {снег} 8/0 2000 м
[Ac trans]
-15.0 -17.7 80 -15 -15 1032.6 1025.9 -14.1 2
15 15.12 Ю 2 н/о слабый снег 10/0 2000 м
[As op]
-14.1 -16.8 80 -19 -19 1031.9 1025.2
18 15.12 Ю 2 н/о слабый снег 10/0 2000 м
[As op]
-13.4 -16.1 80 -18 -18 1030.8 1024.1
21 15.12 Ю 2 н/о {снег} 10/0 2000 м
[As trans]
-12.3 -15.0 80 -17 -17 1029.4 1022.9
00 16.12 Ю 2 н/о слабый снег 10/0 2000 м
[As op]
-12.0 -14.0 85 -17 -17 1028.7 1022.2 -15.0 2 56
03 16.12 Ю 2 10 км слабый снег 10/0 2000 м
[As op]
-12.2 -14.2 85 -17 -17 1028.4 1021.9
06 16.12 Ю 2 10 км слабый снег 10/0 2000 м
[As op]
-11.8 -13.8 85 -16 -16 1029.0 1022.5
09 16.12 штиль 0 50 км {снег} 3/0 2000 м
[Ac trans]
-12.3 -14.3 85 -12 -12 1029.5 1023.0
12 16.12 штиль 0 н/о {снег} ясно -15.7 -17.6 85 -16 -16 1031.8 1025.1 -11.8 0.8
15 16.12 штиль 0 н/о ясно -17.9 -20.5 80 -18 -18 1033.8 1026.9
18 16.12 штиль 0 н/о ясно -20.1 -22.7 80 -20 -20 1034.5 1027.6
21 16.12 штиль 0 н/о слабый снег 10/0 2000 м
[As trans]
-19.3 -21.9 80 -19 -19 1035.5 1028.6
00 17.12 штиль 0 н/о слабый снег 10/0 2000 м
[As trans]
-17.1 -19.7 80 -17 -17 1034.9 1028.2 -20.1 0.5 57
03 17.12 штиль 0 50 км {снег} 10/0 2000 м
[As trans]
-14.5 -17.2 80 -15 -15 1034.6 1027.9
06 17.12 ЮВ 2 20 км слабый снег 10/0 2000 м
[As op]
-11.6 -13.6 85 -16 -16 1033.8 1027.2
09 17.12 штиль 0 20 км слабый снег 10/0 2000 м
[As op]
-10.5 -12.5 85 -11 -11 1032.3 1025.7
12 17.12 Ю 2 н/о слабый снег 10/0 2000 м
[As op]
-9.4 -11.5 85 -14 -14 1031.4 1024.9 -9.4 0.6
15 17.12 Ю 2 н/о слабый снег 10/0 2000 м
[As op]
-9.0 -10.6 88 -14 -14 1029.3 1022.8
18 17.12 Ю 2 н/о {снег} 10/0 2000 м
[As op]
-8.5 -10.0 89 -13 -13 1027.3 1020.8
21 17.12 Ю 2 н/о 10/0 2000 м
[As op]
-7.8 -9.2 90 -12 -12 1026.5 1020.1
00 18.12 штиль 0 н/о 10/0 2000 м
[As op]
-7.9 -9.3 90 -9 -9 1027.1 1020.6 -9.4 0.0 57
03 18.12 штиль 0 50 км 10/0
[Cs]
-9.0 -11.0 85 -10 -10 1027.8 1021.3
06 18.12 штиль 0 50 км 10/0 2000 м
[As trans]
-9.1 -11.1 85 -10 -10 1026.7 1020.2
09 18.12 Ю 2 10 км слабый снег 10/0 2000 м
[As op]
-8.4 -10.3 86 -13 -13 1025.4 1018.9

 

Местоположение метеостанции Бахта (Красноярский край, Россия): широта 62.47 долгота 89.00 высота над уровнем моря 57 м.

В архиве по умолчанию представлена погода в Бахте за последнюю неделю. Архивные данные за месяц целиком и за предыдущие месяцы, начиная с января 2011 года, Вы можете получить, выбрав интересующий диапазон дат из раскрывающегося списка и нажав кнопку "Ввод!".

Внимание! Время в таблицах - всемирное. Для получения местного времени необходимо прибавить поправку, которая в Бахте равна 7 ч.

Смотрите также архив погоды в соседних городах и на ближайших метеорологических станциях:

Погода в Верхнеимбатске (Красноярский край, Россия) (93 км)
Погода в Боре (Красноярский край, Россия) (110 км)
Погода в Келлоге (Красноярский край, Россия) (140 км)
Погода в Кузьмовке (Эвенкия, Россия) (162 км)
Погода в Ворогове (Красноярский край, Россия) (164 км)
Погода в Верещагино (Красноярский край, Россия) (210 км)
Погода в Сыме (Красноярский край, Россия) (238 км)
Погода в Ярцеве (Красноярский край, Россия) (252 км)
Погода в Вельмо (Красноярский край, Россия) (283 км)
Погода в Тутончанах (Эвенкия, Россия) (306 км)

Пояснения к столбцам:

Ветер - указаны скорость ветра в м/с - средняя за 10 мин, порывы в срок и между сроками (в фигурных скобках) и направление, откуда дует ветер: С - северный, СВ - северо-восточный, В - восточный, ЮВ - юго-восточный, Ю - южный, ЮЗ - юго-западный, З - западный, СЗ - северо-западный.
Видимость - горизонтальная дальность видимости в метрах или километрах. При видимости от 1 до 10 км при отсутствии осадков обычно наблюдается дымка, при ухудшении видимости до 1 км и менее - туман. В сухую погоду видимость может ухудшаться дымом, пылью или мглою.
Явления - указаны атмосферные явления, наблюдавшиеся в срок или в последний час перед сроком; фигурными скобками обозначены явления, наблюдавшиеся между сроками (за 1-3 часа до срока); квадратными скобками обозначены град или гололедные отложения с указанием их диаметра в мм.
Облачность - указаны через наклонную черту общая и нижняя облачность в баллах и высота нижней границы облаков в метрах; квадратными скобками обозначены формы облаков: Ci - перистые, Cs - перисто-слоистые, Cc - перисто-кучевые, Ac - высококучевые, As - высокослоистые, Sc - слоисто-кучевые, Ns - слоисто-дождевые, Cu - кучевые, Cb - кучево-дождевые. Подробнее классификацию облаков см. в Атласе облаков (PDF).
T - Температура воздуха - температура, измеренная на высоте 2 м над землей.
Td - Температура точки росы - температура, при понижении до которой содержащийся в воздухе водяной пар достигнет насыщения.
f - Относительная влажность воздуха - влажноcть воздуха, измеренная на высоте 2 м над землей.
Te - Эффективная температура - температура, которую ощущает одетый по сезону человек в тени. Характеристика душности погоды. При расчете учитывается влияние влажности воздуха и скорости ветра на теплоощущения человека.
Tes - Эффективная температура на солнце - температура, которую ощущает человек, с поправкой на солнечный нагрев. Характеристика знойности погоды. Зависит от высоты солнца над горизонтом, облачности и скорости ветра. Ночью, в пасмурную погоду, а также при ветре 12 м/с и более поправка равна нулю.
P - Атмосферное давление - приведенное к уровню моря атмосферное давление.
Po - Атмосферное давление - измеренное на уровне метеостанции атмосферное давление.
Tmin - Минимальная температура - минимум температуры воздуха на высоте 2 м над землей.
Tmax - Максимальная температура - максимум температуры воздуха на высоте 2 м над землей.
R - Количество осадков - Количество выпавших осадков за период времени, мм. При наведении курсора мыши на число - период времени, за который выпало указанное количество осадков.
R24 - Количество осадков - Количество выпавших осадков за 24 часа, мм.
S - Снежный покров - Высота снежного покрова, см. При наведении курсора мыши на число - состояние снежного покрова и степень покрытия местности в баллах.